Weather History for Quantico, VA

Change the Weather History Date:

Saturday, November 3, 2012

  Actual Average Record
Temperature  
Mean Temperature 48 °F -  
Max Temperature 53 °F 59 °F 73 °F (2001)
Min Temperature 42 °F 40 °F 30 °F (2006)
Degree Days  
Heating Degree Days 18    
Moisture  
Dew Point 28 °F    
Average Humidity 48    
Maximum Humidity 60    
Minimum Humidity 41    
Precipitation  
Precipitation 0.00 in - - ()
Sea Level Pressure  
Sea Level Pressure 30.05 in    
Wind  
Wind Speed 12 mph (NNW)    
Max Wind Speed 21 mph    
Max Gust Speed 32 mph    
Visibility 10 miles    
Events      
Averages and records for this station are not official NWS values.
T = Trace of Precipitation, MM = Missing Value Source: NWS Daily Summary

Daily Weather History Graph

Daily Weather History Graph

Search for Another Location

Airport:

Trip Planner

Search our weather history database for the weather conditions in past years. The results will help you decide how hot, cold, wet, or windy it might be!

Date:

Astronomy

Nov. 03, 2012 Rise Set
Actual Time 7:38 AM EDT 6:06 PM EDT
Civil Twilight 7:10 AM EDT 6:34 PM EDT
Nautical Twilight 6:39 AM EDT 7:05 PM EDT
Astronomical Twilight 6:08 AM EDT 7:36 PM EDT
Moon 9:47 PM EDT (11/3) 11:39 AM EDT (11/3)
Length of Visible Light 11h 23m
Length of Day
10h 28m
Waning Gibbous, 80% of the Moon is Illuminated
Nov 3
Waning Gibbous
Nov 6
Last Quarter
Nov 13
New
Nov 20
First Quarter
Nov 28
Full

Hourly Weather History & Observations

Time (EDT) Temp. Windchill Dew Point Humidity Pressure Visibility Wind Dir Wind Speed Gust Speed Precip Events Conditions
12:56 AM 46.9 °F - 28.9 °F 50% 29.97 in 10.0 mi North 11.5 mph 17.3 mph N/A   Overcast
1:56 AM 46.0 °F 41.0 °F 28.9 °F 51% 29.98 in 10.0 mi North 10.4 mph - N/A   Overcast
2:56 AM 46.0 °F 41.9 °F 28.9 °F 51% 29.99 in 10.0 mi North 8.1 mph - N/A   Overcast
3:56 AM 45.0 °F 39.7 °F 28.0 °F 52% 29.99 in 10.0 mi North 10.4 mph - N/A   Overcast
4:56 AM 45.0 °F 37.9 °F 27.0 °F 49% 30.00 in 10.0 mi NNW 16.1 mph 21.9 mph N/A   Overcast
5:56 AM 45.0 °F 38.5 °F 27.0 °F 49% 30.02 in 10.0 mi NNW 13.8 mph 26.5 mph N/A   Mostly Cloudy
6:56 AM 45.0 °F 39.7 °F 27.0 °F 49% 30.03 in 10.0 mi NW 10.4 mph - N/A   Overcast
7:56 AM 44.1 °F 39.5 °F 26.1 °F 49% 30.05 in 10.0 mi NNW 8.1 mph - N/A   Clear
8:56 AM 46.0 °F 41.0 °F 26.1 °F 46% 30.06 in 10.0 mi NNW 10.4 mph - N/A   Overcast
9:56 AM 48.0 °F - 27.0 °F 44% 30.06 in 10.0 mi NNW 13.8 mph 19.6 mph N/A   Mostly Cloudy
10:56 AM 48.0 °F - 26.1 °F 42% 30.06 in 10.0 mi North 17.3 mph 32.2 mph N/A   Partly Cloudy
11:56 AM 50.0 °F - 27.0 °F 41% 30.06 in 10.0 mi North 17.3 mph 26.5 mph N/A   Mostly Cloudy
12:56 PM 48.9 °F - 27.0 °F 43% 30.06 in 10.0 mi NW 18.4 mph 27.6 mph N/A   Overcast
1:56 PM 50.0 °F - 27.0 °F 41% 30.05 in 10.0 mi NW 11.5 mph 24.2 mph N/A   Mostly Cloudy
2:56 PM 52.0 °F - 28.9 °F 41% 30.04 in 10.0 mi NNW 16.1 mph 28.8 mph N/A   Mostly Cloudy
3:56 PM 51.1 °F - 28.0 °F 41% 30.06 in 10.0 mi North 20.7 mph 27.6 mph N/A   Mostly Cloudy
4:56 PM 50.0 °F - 28.0 °F 43% 30.06 in 10.0 mi North 15.0 mph 25.3 mph N/A   Mostly Cloudy
5:56 PM 48.0 °F - 28.0 °F 46% 30.07 in 10.0 mi NNW 17.3 mph 27.6 mph N/A   Scattered Clouds
6:56 PM 46.9 °F - 28.9 °F 50% 30.07 in 10.0 mi North 8.1 mph - N/A   Overcast
7:56 PM 46.0 °F 43.1 °F 28.9 °F 51% 30.09 in 10.0 mi NW 5.8 mph - N/A   Mostly Cloudy
8:56 PM 45.0 °F 43.5 °F 30.0 °F 56% 30.09 in 10.0 mi West 3.5 mph - N/A   Partly Cloudy
9:56 PM 44.1 °F 41.5 °F 28.9 °F 55% 30.10 in 10.0 mi West 4.6 mph - N/A   Clear
10:56 PM 43.0 °F - 30.0 °F 60% 30.11 in 10.0 mi Calm Calm - N/A   Partly Cloudy
11:56 PM 42.1 °F 39.2 °F 28.9 °F 60% 30.12 in 10.0 mi West 4.6 mph - N/A   Partly Cloudy